To NAV CANADA Home Page Login to a new session Search on AWWS site Feedback and Comments Disclaimer Vers la page française équivalente Tips FAQ What's new on the site To the Forecasts and Observations / NOTAM section To "File a Flight Plan" website Publications and other links Update of the User's profile FIC Telephone Numbers My Weather Data Folder Route Weather Data Regional Weather Data Local Weather Data To the Forecasts and Observations / NOTAM section
Request Generated 10/04/2015 at 07:29:14 UTC . Weather information available at that time is displayed.



LWIS CYCS 040700Z AUTO 35010KT M01/M04 A3044=
LWIS CYCS 040600Z AUTO 36012KT M00/M03 A3043=
LWIS CYCS 040500Z AUTO 36014KT M00/M03 A3043=

CYCS - No TAF is issued for this station

Your time UTC time
Weather data provided by Environment Canada and NAV CANADA